Weather History for Piney Island, NC

Change the Weather History Date:

Sunday, May 12, 2013

  Actual Average (KMRH) Record (KMRH)
Temperature  
Mean Temperature 74 °F -  
Max Temperature 80 °F 76 °F 85 °F (1948)
Min Temperature 68 °F 58 °F 43 °F (1969)
Cooling Degree Days 9    
Growing Degree Days 24 (Base 50)    
Moisture  
Dew Point 61 °F    
Average Humidity 65    
Maximum Humidity 84    
Minimum Humidity 39    
Precipitation  
Precipitation 0.00 in - - ()
Sea Level Pressure  
Sea Level Pressure 29.87 in    
Wind  
Wind Speed 10 mph (WNW)    
Max Wind Speed 17 mph    
Max Gust Speed 20 mph    
Visibility 10 miles    
Events Rain    
Averages and records for this station are not official NWS values.
T = Trace of Precipitation, MM = Missing Value Source: NWS Daily Summary

Daily Weather History Graph

Daily Weather History Graph

Search for Another Location

Airport:

Trip Planner

Search our weather history database for the weather conditions in past years. The results will help you decide how hot, cold, wet, or windy it might be!

Date:

Astronomy

May. 12, 2013 Rise Set
Actual Time 6:04 AM EDT 8:00 PM EDT
Civil Twilight 5:36 AM EDT 8:28 PM EDT
Nautical Twilight 5:02 AM EDT 9:02 PM EDT
Astronomical Twilight 4:26 AM EDT 9:38 PM EDT
Moon 7:59 AM EDT (5/12) 10:24 PM EDT (5/12)
Length of Visible Light 14h 51m
Length of Day
13h 56m
Waxing Crescent, 6% of the Moon is Illuminated
May 12
Waxing Crescent
May 18
First Quarter
May 25
Full
May 31
Last Quarter
Jun 8
New

Hourly Weather History & Observations

Time (EDT) Temp. Dew Point Humidity Pressure Visibility Wind Dir Wind Speed Gust Speed Precip Events Conditions
12:56 AM 71.1 °F 66.0 °F 84% 29.85 in 8.0 mi SSW 12.7 mph - N/A   Clear
1:56 AM 72.0 °F 66.0 °F 81% 29.84 in 9.0 mi SW 10.4 mph - N/A   Clear
2:56 AM 73.0 °F 66.0 °F 79% 29.83 in 9.0 mi SSW 12.7 mph - N/A   Mostly Cloudy
3:56 AM 72.0 °F 66.0 °F 81% 29.82 in 9.0 mi SW 9.2 mph - N/A   Clear
4:56 AM 72.0 °F 66.9 °F 84% 29.79 in 9.0 mi SW 8.1 mph - 0.00 in Rain Light Rain
5:56 AM 72.0 °F 66.9 °F 84% 29.82 in 8.0 mi SW 9.2 mph - 0.00 in   Overcast
7:56 AM 72.0 °F 66.9 °F 84% 29.82 in 8.0 mi West 11.5 mph - N/A   Mostly Cloudy
8:56 AM 73.0 °F 64.9 °F 76% 29.83 in 9.0 mi WNW 17.3 mph - N/A   Partly Cloudy
9:18 AM 73.4 °F 64.4 °F 73% 29.82 in 10.0 mi NW 10.4 mph - N/A   Partly Cloudy
9:56 AM 73.9 °F 62.1 °F 66% 29.85 in 10.0 mi NW 9.2 mph - N/A   Partly Cloudy
10:56 AM 73.9 °F 60.1 °F 62% 29.86 in 10.0 mi NNW 10.4 mph - N/A   Mostly Cloudy
11:56 AM 75.0 °F 60.1 °F 60% 29.86 in 10.0 mi NW 10.4 mph - N/A   Mostly Cloudy
12:56 PM 75.9 °F 59.0 °F 56% 29.85 in 10.0 mi WNW 6.9 mph - N/A   Clear
1:56 PM 75.9 °F 61.0 °F 60% 29.85 in 10.0 mi West 8.1 mph - N/A   Scattered Clouds
2:56 PM 77.0 °F 60.1 °F 56% 29.84 in 10.0 mi NW 9.2 mph - N/A   Clear
3:56 PM 79.0 °F 59.0 °F 50% 29.84 in 10.0 mi West 10.4 mph 19.6 mph N/A   Clear
4:56 PM 79.0 °F 53.1 °F 40% 29.85 in 10.0 mi West 11.5 mph 18.4 mph N/A   Clear
5:56 PM 79.0 °F 52.0 °F 39% 29.86 in 10.0 mi West 8.1 mph - N/A   Clear
6:56 PM 77.0 °F 54.0 °F 45% 29.88 in 10.0 mi WNW 8.1 mph - N/A   Scattered Clouds
7:56 PM 73.9 °F 55.0 °F 52% 29.91 in 10.0 mi NNW 9.2 mph - N/A   Partly Cloudy
8:56 PM 73.0 °F 55.0 °F 53% 29.94 in 10.0 mi NNW 8.1 mph - N/A   Mostly Cloudy
9:56 PM 70.0 °F 64.9 °F 84% 29.97 in 9.0 mi ENE 4.6 mph - N/A   Scattered Clouds
10:56 PM 69.1 °F 60.1 °F 73% 29.99 in 10.0 mi North 9.2 mph - N/A   Clear
11:56 PM 68.0 °F 48.0 °F 49% 30.00 in 10.0 mi North 10.4 mph - N/A   Partly Cloudy